COSMOS 2491 DEB, 47110

Orbit data source: Space-Track

COSMOS 2491 DEB, 47110 is space debris in LEO originally from a launch on Wed, 25 Dec 2013 UTC launched from the Plesetsk Missile And Space Complex (PKMTR). Debris objects in space refer to the collection of defunct objects orbiting the Earth. Examples of debris include non-operational satellites, rocket bodies, and fragments generated from explosions, collisions, or faulty payload assembly.

Loading next visibility...
Identifier
47110, 2013-076AF
Orbit
LEO
Last TLE update
5 days ago
Origin
Manufacturer
TsNIIKhM
Mission
Spacecraft
Bus & Motor
Unknown
Mass
Unknown
Launch date (UTC)
2013-12-25 (12 years ago)
Launch vehicle
Unknown
Launch site
Plesetsk Missile And Space Complex (PKMTR)
Object type
Payload
Rocket body
Debris
Shape & HBR
Unknown
Radar Cross Section
Small (<0.1 m²)

Expand to show TLE details & history

TLE from 5 days ago
0 COSMOS 2491 DEB
1 47110U 13076AF  25177.25998405  .00001607  00000-0  93251-2 0  9990
2 47110  82.4440   3.8712 0111587 281.8852  76.9741 12.57299012246841
Epoch: 2025-06-26T06:14Z
TLE epoch observation values (Epoch: 2025-06-26T06:14:22.621Z)
Latitude
-0.00005°
Longitude
-4.35282°
Altitude
1,418.108 km
Speed
7.16 km/s
True Right ascension
00h 15m 29s
True Declination
0° 00' 00"
Sunlit
Object was in daylight at epoch
Visualization orbit readout
Latitude
8.21859°
Longitude
-6.53918°
Altitude
1,447.049 km
Speed
7.134 km/s
Apparent Right ascension
02h 41m 44s
Apparent Declination
-23° 41' 05"
Sunlit
Object is in daylight
Visualization observer readout
Local Sidereal Time
20:08:42
Azimuth
103.865° ESE
Elevation
-21.017°
Doppler factor
1
Orbital elements
Apogee altitude
1,518.59 km
Perigee altitude
1,344.301 km
Semi-major axis
7,809.582 km
Eccentricity
0.01116
Inclination
82.444°
RAAN
3.8712°
Arg. of periapsis
281.8852°
True anomaly
Unknown
Mean anomaly
76.9741°
Eccentric anomaly
Unknown
Mean motion
3.14486 °/min
Orbital period
114.47 mins
BSTAR
0.0093251
Loading maneuver chart data...
Loading SW <> Apogee altitude chart data...
Loading historical data...
Loading historical data...
Loading historical data...
Loading historical data...
Loading historical data...
Loading historical data...
Loading historical data...

COSMOS 2491 DEB Visibility forecast

Observer location: undefined°, undefined°

Span
Click to sort rows by Start time (UTC) header in descending order
Start Az.
Max El. time (UTC)
Max El. Az.
Max El.
End time (UTC)
End Az.
5 mins2025-07-01 10:33:34.333Z91.915° ESE2025-07-01 10:36:34.333Z70.935° E11.93°2025-07-01 10:38:34.333Z57.112° ENE
16 mins2025-07-01 12:22:34.333Z173.941° S2025-07-01 12:29:34.333Z110.069° ESE43.387°2025-07-01 12:38:34.333Z12.015° NNE
12 mins2025-07-01 14:20:34.333Z247.471° WSW2025-07-01 14:26:34.333Z297.167° NW22.728°2025-07-01 14:32:34.333Z343.088° N
13 mins2025-07-01 22:27:34.333Z14.706° NNE2025-07-01 22:33:34.333Z64.457° ENE27.388°2025-07-01 22:40:34.333Z125.592° SE
15 mins2025-07-02 00:22:34.333Z342.242° N2025-07-02 00:29:34.333Z278.141° WNW39.937°2025-07-02 00:37:34.333Z195.336° SSW
|